NOAA 16 DEB, 41526

Orbit data source: Space-Track

NOAA 16 DEB, 41526 is space debris in SSO originally from a launch on Thu, 21 Sep 2000 UTC launched from the Air Force Western Test Range (AFWTR). Debris objects in space refer to the collection of defunct objects orbiting the Earth. Examples of debris include non-operational satellites, rocket bodies, and fragments generated from explosions, collisions, or faulty payload assembly.

Loading next visibility...
Identifier
41526, 2000-055NA
Orbit
SSO
Country
Flag of USUS
Related business
Manufacturer
Unknown
Mission
Spacecraft
Bus & Motor
Unknown
Mass
Unknown
Launch date (UTC)
2000-09-21 (25 years ago)
Launch vehicle
Unknown
Launch site
Air Force Western Test Range (AFWTR)
Object type
Payload
Rocket body
Debris
Shape & HBR
Unknown shape, 0.1 m
Radar Cross Section
Small (<0.1 m²)

Expand to show TLE details & history
Last TLE update: 2 days ago

TLE from 2 days ago
0 NOAA 16 DEB
1 41526U 00055NA  25353.46856475  .00005903  00000-0  16106-2 0  9994
2 41526  99.0051 180.5469 0019841   6.3223 353.8214 14.47619593506619
Epoch: 2025-12-19T11:14Z
TLE epoch observation values (Epoch: 2025-12-19T11:14:43.994Z)
Latitude
-0.00006°
Longitude
-76.44568°
Altitude
722.346 km
Speed
7.502 km/s
True Right ascension
12h 02m 11s
True Declination
0° 00' 00"
Sunlit
Object was in daylight at epoch
Visualization orbit readout
Latitude
Unknown
Longitude
Unknown
Altitude
Unknown
Speed
Unknown
Apparent Right ascension
Unknown
Apparent Declination
Unknown
Sunlit
N/A
Visualization observer readout
Local Sidereal Time
14:40:51
Azimuth
Unknown
Elevation
Unknown
Doppler factor
Unknown
Orbital elements
Apogee altitude
744.675 km
Perigee altitude
716.466 km
Semi-major axis
7,108.707 km
Eccentricity
0.00198
Inclination
99.0051°
RAAN
180.5469°
Arg. of periapsis
6.3223°
True anomaly
353.79687°
Mean anomaly
353.8214°
Eccentric anomaly
353.80914°
Mean motion
3.62124 °/min
Orbital period
99.41 mins
BSTAR
0.0016106
Loading maneuver chart data...
Computing Atmospheric mass density...
Loading historical data...
Loading historical data...
Loading historical data...
Loading historical data...
Loading historical data...
Loading historical data...
Loading historical data...

Documentation

Showing up to 5 results
|